Погода Резекне

Погода Резекне : погода сейчас, прогноз погоды и архив. Всё, что Вы хотите узнать о погоде Резекне!

Поиск расширенной информации на нашем сайте:

Другие новости

Новости СМИ2

Главная страница сайта

Новости сайта

03.07.2017

Напоминаем, что на нашем специализированном сайте Метеоцентр.Азия вы можете получить высокодетализированные автоматические прогнозы погоды по пунктам России, СНГ и мира в авиационном формате (включающие направление и скорость ветра, видимость, явления погоды, количество и форму облачности, нижнюю и верхнюю границу облачности).


Погода Резекне - сегодня

Время (UTC), дата Ветер
(°,м/с) 
Видим.   Явления Облачность Т
(°С)
Тd
(°С)
f(%) Тe
(°С)
Pmin
(гПа)
dP
(гПа)
Po
(мм)
O2
(г/м3)
Тmin Tmax R s Состояние
почвы
03 17.10.17 290 (З) 2-4  н/о    н/о 
+9.1 +8.6 97 +9  1018  749  291           
06 17.10.17 270 (З) 3-5  н/о    н/о 
+8.6 +8.5 99 +8  1019.2  1.1  750  291           
09 17.10.17 220 (ЮЗ) 3-6  н/о    н/о 
+11 +10 94 +12  1018.8  -0.2  750  289           
12 17.10.17 220 (ЮЗ) 5-7  н/о    н/о 
+12.7 +10.2 85 +13  1016.8  748  286           
15 17.10.17 220 (ЮЗ) 6-10  н/о    н/о 
+12.3 +10.4 88 +13  1014  746  286           
18 17.10.17 220 (ЮЗ) 5-9  н/о    н/о 
+12.5 +10.8 89 +14  1011.7  745  285           
21 17.10.17 230 (ЮЗ) 6-9  н/о    н/о 
+13.3 +12.2 93 +16  1009.1  -2.5  743  283           
00 18.10.17 250 (З) 6-11  н/о    н/о 
+12.1 +8.4 78 +11  1009.1  743  285           
03 18.10.17 250 (З) 6-9  н/о    н/о 
+11.1 +8.6 85 +10  1008.2  742  286           
06 18.10.17 240 (ЮЗ) 5-9  н/о    н/о 
+10.8 +8.3 85 +10  1007.5  -0.7  742  286           
09 18.10.17 240 (ЮЗ) 7-9  н/о    н/о 
+11.6 +7.9 78 +10  1007.6  742  285           
12 18.10.17 250 (З) 6-8  н/о    н/о 
+11.8 +9.3 85 +11  1008.4  0.8  742  285           
15 18.10.17 290 (З) 4-7  н/о    н/о 
+10.7 +9.9 95 +11  1009.9  743  286           
18 18.10.17 280 (З) 2-3  н/о    н/о 
+6.6 +5.1 90 +6  1012.7  2.5  745  292           
21 18.10.17 270 (З) 1-2  н/о    н/о 
+3.6 +3.2 97 +4  1014.7  746  296           
00 19.10.17 260 (З) 2-3  н/о    н/о 
+3.2 +3 99 +3  1016  1.2  747  297           
03 19.10.17 250 (З) 2-3  н/о    н/о 
+1.9 +1.9 100 +1  1017.1  748  299           
06 19.10.17 250 (З) 2-3  н/о    н/о 
+3.2 +3.4 100 +3  1018.1  749  298           
09 19.10.17 270 (З) 3-5  н/о    н/о 
+6.1 +5.3 95 +5  1019.4  1.4  750  295           
12 19.10.17 280 (З) 3-5  н/о    н/о 
+9.2 +5.6 78 +9  1019.7  750  292           
15 19.10.17 230 (ЮЗ) 2-2  н/о    н/о 
+6.9 +5.3 90 +7  1020.1  751  294           
18 19.10.17 260 (З) 2-2  н/о    н/о 
+4.7 +4.3 97 +4  1021.1  0.8  751  297           
21 19.10.17 180 (Ю) 1-1  н/о    н/о 
+0.3 +0.3 100 +1  1022.4  752  303           
00 20.10.17 320 (СЗ) 1-1  н/о    н/о 
-0.7 -0.5 100 1023  0.6  752  304           
03 20.10.17 240 (ЮЗ) 1-1  н/о    н/о 
-0.3 -0.2 100 1023.4  0.4  753  304           
Время (UTC), дата Ветер
(°,м/с) 
Видим.   Явления Облачность Т
(°С)
Тd
(°С)
f(%) Тe
(°С)
Pmin
(гПа)
dP
(гПа)
Po
(мм)
O2
(г/м3)
Тmin Tmax R s Состояние
почвы

Для получения пояснительной информации подведите курсор к названию столбца.

ПОГОДА Резекне - архив

Всё, что Вы хотите узнать о погоде Резекне - удобно и подробно!

Выберите нужную дату (начиная с 1 января 2015* года) и нажмите кнопку "Найти".
Будут отображены архивные сводки погоды по пункту Резекне, начиная с указанной даты.


Отображать данные в формате CSV (для использования в таблицах Excel)


Внимание! Наш архив погоды предназначен исключительно для личного некоммерческого использования в познавательных целях. Если Вам необходимы официальные справки о состоянии погоды (для производственных, юридических, коммерческих и т.п. целей), обращайтесь в органы Росгидромета.

*Примечание: данная дата относится к архиву по метеостанциям СССР (Россия, СНГ, Балтия).
Архив по метеостанциям Зарубежной Европы и Азии (кроме Китая) хранится 10 дней, по другим регионам земного шара (Китай, Африка, Америка, Австралия, Океания) - 1 день.

Резекне - район местоположения метеостанции


Название, широта, долгота, высота метеостанции:
Резекне 56.5°ш. 27.3°д. 157 м над ур. моря [Латвия]

Дополнительная информация

В oтличие oт бoльшинства пoгoдных сайтoв мы публикуем пoдрoбную метеoинфoрмацию в детальнoм прoфессиoнальнoм фoрмате.

Характеристики температуры и влажнoсти вoздуха измеряются на высoте 2 м в тени вдали oт зданий и деревьев.
Скoрoсть ветра измеряется на высoте 10 м (на урoвне рoста челoвека скoрoсть ветра ниже в 1.5-2 раза). Если метеoстанция нахoдится в гoрoде или в лесу, тo скoрoсть ветра занижена на 2-4 м/с пo сравнению с oткрытым местoм. Скoрoсть ветра над акватoриями крупных рек и oзёр, а также на вершинах хoлмoв на 2-5 м/с выше, чем в oбычных услoвиях.
Атмoсфернoе давление в разных тoчках местнoсти мoжет значительнo oтличаться oт давления на метеoстанции, в зависимoсти oт услoвий рельефа (при пoдъёме на 10 м давление пoнижается примернo на 1 мм рт.ст.).